Location: Nag� el Ma?a??a
(24.0667°N, 32.8833°E)
Time: 15:10:49
(UTC+00:00)

Cosmos 1515 - Pass Details

Date: 25 September 2021
Orbit: 504 x 513 km, 82.5° (Epoch: 16 October)

Event Time Altitude Azimuth Distance (km) Brightness Sun altitude
Exits shadow 02:14:47 12° 185° (S) 1,585 6.0 -19.8°
Maximum altitude 02:18:14 89° 272° (W) 515 3.5 -19.0°
Drops below altitude 10° 02:22:02 10° 5° (N) 1,734 6.5 -18.2°
Sets 02:24:10 0° 5° (N) 2,624 7.4 -17.7°
